Location: Czekanka
(50.4925°N, 19.2643°E)
Time: 08:24:40
(UTC+00:00)

SL-16 R/B - Pass Details

Date: 19 September 2024
Orbit: 842 x 846 km, 71.0° (Epoch: 05 October)

Event Time Altitude Azimuth Distance (km) Brightness Sun altitude
Rises 19:02:47 0° 215° (SW) 3,394 5.4 -21.4°
Reaches altitude 10° 19:05:14 10° 218° (SW) 2,462 4.7 -21.7°
Maximum altitude 19:10:52 70° 302° (WNW) 902 2.5 -22.5°
Drops below altitude 10° 19:16:33 10° 26° (NNE) 2,475 4.7 -23.3°
Sets 19:19:01 0° 29° (NNE) 3,413 5.4 -23.6°
